Regional Weather Roundup
Issued by NWS

Home | Current Version | Previous Version | Graphics & Text | Print | Product List | Glossary On
Versions: 1 2 3 4 5 6 7 8 9 10 11 12 13 14 15 16 17 18 19 20 21 22 23 24 25 26 27 28 29 30 31 32 33 34 35 36 37 38 39 40 41 42 43 44 45 46 47 48 49 50
000
ASUS44 KMEG 260210
RWRTN
TENNESSEE HOURLY STATE WEATHER ROUNDUP
NATIONAL WEATHER SERVICE MEMPHIS TN
900 PM CDT FRI MAY 25 2018

TNZ002-004-019-021-049-052-054-088>092-260300-
WEST TENNESSEE

CITY           SKY/WX    TMP DP  RH WIND       PRES   REMARKS
MEMPHIS INTL   MOCLDY    75  69  81 SE9       29.88F
NWS MEMPHIS      N/A     72 N/A N/A MISG        N/A
JACKSON        LGT RAIN  72  72 100 CALM      29.90S
DYERSBURG      FAIR      72  69  90 VRB3      29.90R
SOMERVILLE       N/A     70  70 100 CALM      29.89S
COVINGTON      CLEAR     73  70  88 S3        29.89S
UNION CITY     MOCLDY    72  72 100 S6        29.87R
BOLIVAR        CLOUDY    70  68  94 CALM      29.90F
PARIS          CLEAR     72  70  94 CALM      29.89S
HUNTINGDON     CLEAR     73  72  94 CALM      29.89R
LEXINGTON      MOCLDY    73  72  94 CALM      29.90F
SELMER         MOCLDY    70  68  94 SE13G18   29.94R
SAVANNAH       MOCLDY    72  68  88 S5        29.92F
$$

TNZ008-025-027-028-033-062-065-066-260300-
NORTH MIDDLE TENNESSEE

CITY           SKY/WX    TMP DP  RH WIND       PRES   REMARKS
NASHVILLE      MOCLDY    75  67  76 S6        29.92F
DICKSON        CLEAR     73  70  88 S8        29.92S
PORTLAND         N/A     75  70  83 SW5       29.92S
CLARKSVILLE    FAIR      72  68  87 S5        29.89F FOG
SMYRNA         FAIR      73  69  87 SE7       29.93F
MURFREESBORO   MOCLDY    73  70  88 CALM      29.92S
COOKEVILLE     PTCLDY    73  66  78 SW5       29.94S
LIVINGSTON     CLEAR     75  68  78 SW9       29.95R
CROSSVILLE     FAIR      73  65  75 VRB3      30.00S
ROCKWOOD       PTCLDY    73  66  78 S6        29.98S
$$

TNZ061-075-076-078-094-096-097-260300-
SOUTH MIDDLE TENNESSEE

CITY           SKY/WX    TMP DP  RH WIND       PRES   REMARKS
LEWISBURG      MOCLDY    72  68  88 SW7       29.95S
FAYETTEVILLE   CLOUDY    70  70 100 W6        29.97S
TULLAHOMA      CLOUDY    72  68  88 SW6       29.97S
WINCHESTER     MOCLDY    73  68  83 W3        29.97S
MCMINNVILLE    PTCLDY    70  68  94 CALM      29.96R
COLUMBIA       PTCLDY    72  72 100 VRB6G13   29.94S
SHELBYVILLE    MOCLDY    72  68  88 S7        29.96R
$$

TNZ017-018-042-046-047-260300-
NORTHEAST TENNESSEE

CITY           SKY/WX    TMP DP  RH WIND       PRES   REMARKS
TRI CITIES     MOCLDY    74  63  68 S7        30.01R
ELIZABETHTON     N/A     72  63  73 CALM      30.01R
GREENEVILLE    CLEAR     73  63  68 VRB5      30.00S
$$

TNZ012-013-036-069-073-074-260300-
CENTRAL EAST TENNESSEE

CITY           SKY/WX    TMP DP  RH WIND       PRES   REMARKS
KNOXVILLE      CLOUDY    77  69  76 SW8       29.95R
OAK RIDGE      FAIR      75  71  87 CALM      29.96S
DOWNTOWN KNOXV   N/A     72  70  94 CALM      29.95S
GATLINBURG     CLEAR     73  70  88 CALM      29.96S
MORRISTOWN     CLEAR     75  68  78 SE3       29.97S
JACKSBORO      PTCLDY    73  64  73 CALM      29.99S
$$

TNZ083-085-099-260300-
SOUTHEAST TENNESSEE

CITY           SKY/WX    TMP DP  RH WIND       PRES   REMARKS
CHATTANOOGA    MOCLDY    82  66  58 VRB3      29.95R
DAYTON         CLEAR     75  68  78 SE8G15    29.94S
$$

SKY/WX REPORTED AS FAIR MEANS FEW OR NO CLOUDS BELOW
12 THOUSAND FEET.




USA.gov is the U.S. government's official web portal to all federal, state and local government web resources and services.